This demonstration page uses our WeatherBlox Daily Observations layout. Learn more.

Left ArrowRight Arrow

39.51506, -84.39828

Hourly Observations for February 7, 2018

Temp ( °F °C ) Dew Point ( °F °C ) Humidity (%) Winds ( mph kmh ) Pressure ( in mb ) Visibility ( mi km ) Precip ( " mm )
12:15 am 00:15 Cloudy 27 -2.6 21 -5.9 78 78 ENE 6 9 30.27 1025 10 16 0.00 0.00
12:35 am 00:35 Cloudy 28 -2.5 21 -5.9 78 78 ENE 7 11 30.24 1024 10 16 0.00 0.00
12:55 am 00:55 Cloudy with Light Snow 28 -2.4 22 -5.7 78 78 NE 6 9 30.27 1025 7 11 0.00 0.00
1:15 am 01:15 Cloudy with Snow 27 -2.8 23 -5.1 84 84 NNE 6 9 30.24 1024 1 2 0.00 0.00
1:35 am 01:35 Cloudy with Snow 26 -3.3 24 -4.3 93 93 NNE 7 11 30.24 1024 1 1 0.01 0.25
1:55 am 01:55 Cloudy with Light Snow 26 -3.4 24 -4.3 94 94 NNE 7 11 30.21 1023 1 2 0.02 0.51
2:15 am 02:15 Cloudy with Light Snow 26 -3.5 24 -4.5 93 93 NNE 12 19 30.21 1023 2 3 0.01 0.25
2:35 am 02:35 Cloudy with Light Snow 26 -3.5 23 -4.8 91 91 NNE 10 17 30.18 1022 2 3 0.02 0.51
2:55 am 02:55 Cloudy with Light Snow 26 -3.6 24 -4.7 92 92 NNE 9 15 30.18 1022 2 2 0.03 0.76
3:15 am 03:15 Cloudy with Snow 25 -3.7 24 -4.7 93 93 NNE 10 17 30.18 1022 1 2 0.01 0.25
3:35 am 03:35 Cloudy with Light Snow 25 -3.7 23 -4.8 92 92 NE 9 15 30.15 1021 1 2 0.03 0.76
3:55 am 03:55 Cloudy with Light Snow 26 -3.6 23 -4.9 91 91 NE 10 17 30.15 1021 3 5 0.05 1.27
4:15 am 04:15 Cloudy with Light Snow 25 -3.8 22 -5.3 89 89 NNE 12 19 30.12 1020 5 8 0.01 0.25
4:35 am 04:35 Cloudy with Light Snow 25 -3.7 23 -5.2 89 89 N 9 15 30.15 1021 3 5 0.01 0.25
4:55 am 04:55 Cloudy with Snow 25 -4.1 22 -5.3 91 91 NNE 14 22 30.12 1020 1 2 0.03 0.76
5:15 am 05:15 Cloudy with Snow 24 -4.3 22 -5.3 93 93 NNE 12 19 30.12 1020 1 1 0.01 0.25
5:35 am 05:35 Cloudy with Light Snow 24 -4.2 22 -5.3 92 92 N 8 13 30.15 1021 2 2 0.03 0.76
5:55 am 05:55 Cloudy with Light Snow 24 -4.3 22 -5.7 90 90 N 15 24 30.15 1021 2 3 0.03 0.76
6:15 am 06:15 Cloudy with Light Snow 24 -4.4 21 -5.9 89 89 NNE 10 17 30.15 1021 3 4 0.00 0.00
6:35 am 06:35 Cloudy with Light Snow 24 -4.4 21 -6 89 89 N 9 15 30.15 1021 4 6 0.00 0.00
6:55 am 06:55 Cloudy with Light Snow 24 -4.5 21 -6.2 88 88 NNE 12 19 30.15 1021 4 6 0.01 0.25
7:15 am 07:15 Cloudy with Light Snow 24 -4.5 21 -6 89 89 N 9 15 30.15 1021 3 4 0.00 0.00
7:35 am 07:35 Cloudy with Light Snow 23 -4.8 20 -6.4 89 89 N 12 19 30.18 1022 2 3 0.00 0.00
7:55 am 07:55 Cloudy with Light Snow 23 -4.9 20 -6.5 89 89 N 10 17 30.18 1022 1 2 0.00 0.00
8:15 am 08:15 Cloudy with Light Snow 23 -5.1 20 -6.7 89 89 N 8 13 30.18 1022 2 2 0.00 0.00
8:35 am 08:35 Cloudy with Light Snow 23 -5.2 20 -6.9 88 88 NNE 9 15 30.18 1022 2 3 0.00 0.00
8:55 am 08:55 Cloudy with Light Snow 23 -5.2 19 -7 87 87 N 8 13 30.18 1022 3 5 0.00 0.00
9:15 am 09:15 Cloudy with Light Snow 23 -5.2 19 -7.2 86 86 N 7 11 30.18 1022 4 6 0.00 0.00
9:35 am 09:35 Cloudy 23 -5 19 -7.4 83 83 NNE 8 13 30.18 1022 10 16 0.00 0.00
9:55 am 09:55 Mostly Cloudy 23 -4.9 18 -7.6 82 82 N 9 15 30.18 1022 10 16 0.00 0.00
10:15 am 10:15 Mostly Cloudy 24 -4.5 19 -7.5 80 80 N 8 13 30.21 1023 10 16 0.00 0.00
10:35 am 10:35 Sunny 24 -4.2 19 -7.4 79 79 N 7 11 30.21 1023 10 16 0.00 0.00
10:55 am 10:55 Cloudy 25 -3.9 19 -7.4 77 77 NNW 6 9 30.21 1023 10 16 0.00 0.00
11:15 am 11:15 Partly Cloudy 25 -3.8 19 -7.5 76 76 N 7 11 30.24 1024 10 16 0.00 0.00
11:35 am 11:35 Sunny 25 -3.8 18 -7.7 75 75 NW 10 17 30.24 1024 10 16 0.00 0.00
11:55 am 11:55 Sunny 26 -3.4 19 -7.5 74 74 NNW 9 15 30.24 1024 10 16 0.00 0.00
12:15 pm 12:15 Sunny 27 -2.8 19 -7.3 71 71 NNW 12 19 30.24 1024 10 16 0.00 0.00
12:35 pm 12:35 Sunny 27 -2.9 19 -7.5 71 71 NNW 8 13 30.24 1024 7 11 0.00 0.00
12:55 pm 12:55 Sunny 26 -3.4 18 -7.6 73 73 N 7 11 30.24 1024 7 11 0.00 0.00
1:15 pm 13:15 Sunny 26 -3.2 18 -7.6 72 72 NNW 8 13 30.27 1025 7 11 0.00 0.00
1:35 pm 13:35 Mostly Cloudy 27 -2.6 19 -7.3 70 70 NW 8 13 30.27 1025 7 11 0.00 0.00
1:55 pm 13:55 Partly Cloudy 28 -2.3 19 -7.3 69 69 N 10 17 30.24 1024 7 11 0.00 0.00
2:15 pm 14:15 Partly Cloudy 28 -2.3 19 -7.5 68 68 NW 8 13 30.27 1025 10 16 0.00 0.00
2:35 pm 14:35 Sunny 28 -2.5 17 -8.1 66 66 NNW 9 15 30.27 1025 10 16 0.00 0.00
2:55 pm 14:55 Sunny 28 -2.3 18 -8 65 65 N 8 13 30.27 1025 10 16 0.00 0.00
3:15 pm 15:15 Mostly Cloudy 29 -1.6 19 -7.5 64 64 NW 7 11 30.30 1026 10 16 0.00 0.00
3:35 pm 15:35 Mostly Cloudy 28 -2 18 -7.8 65 65 NW 7 11 30.30 1026 10 16 0.00 0.00
3:55 pm 15:55 Mostly Cloudy 29 -1.7 18 -7.8 63 63 WNW 8 13 30.30 1026 10 16 0.00 0.00
4:15 pm 16:15 Cloudy 28 -2 18 -7.9 64 64 NW 10 17 30.33 1027 10 16 0.00 0.00
4:35 pm 16:35 Cloudy 28 -2 18 -7.8 65 65 N 6 9 30.33 1027 10 16 0.00 0.00
4:55 pm 16:55 Cloudy 28 -2 18 -7.7 65 65 NNW 7 11 30.33 1027 10 16 0.00 0.00
5:15 pm 17:15 Cloudy 28 -2.1 18 -7.6 66 66 N 6 9 30.33 1027 10 16 0.00 0.00
5:35 pm 17:35 Cloudy 28 -2.3 18 -7.8 66 66 NW 7 11 30.36 1028 10 16 0.00 0.00
5:55 pm 17:55 Cloudy 28 -2.5 17 -8.2 65 65 NW 10 17 30.36 1028 10 16 0.00 0.00
6:15 pm 18:15 Cloudy 27 -2.8 17 -8.2 67 67 NNW 9 15 30.36 1028 10 16 0.00 0.00
6:35 pm 18:35 Cloudy 27 -2.9 17 -8.5 66 66 NNW 9 15 30.39 1029 10 16 0.00 0.00
6:55 pm 18:55 Cloudy 26 -3.1 17 -8.4 67 67 NNW 9 15 30.39 1029 10 16 0.00 0.00
7:15 pm 19:15 Cloudy 26 -3.2 16 -8.9 65 65 NW 7 11 30.42 1030 10 16 0.00 0.00
7:35 pm 19:35 Cloudy 26 -3.3 16 -9.1 65 65 NW 10 17 30.42 1030 10 16 0.00 0.00
7:55 pm 19:55 Cloudy 26 -3.3 16 -9.1 65 65 NW 6 9 30.42 1030 10 16 0.00 0.00
8:15 pm 20:15 Cloudy 26 -3.5 16 -8.8 67 67 NNW 5 7 30.45 1031 10 16 0.00 0.00
8:35 pm 20:35 Cloudy 25 -3.7 16 -8.9 68 68 N 5 7 30.48 1032 10 16 0.00 0.00
8:55 pm 20:55 Cloudy 25 -3.8 16 -8.9 68 68 NNW 6 9 30.48 1032 10 16 0.00 0.00
9:15 pm 21:15 Cloudy 25 -3.9 16 -8.9 69 69 NW 9 15 30.48 1032 10 16 0.00 0.00
9:35 pm 21:35 Cloudy 25 -4.1 15 -9.4 67 67 WNW 9 15 30.48 1032 10 16 0.00 0.00
9:55 pm 21:55 Cloudy 24 -4.3 14 -9.8 66 66 NW 7 11 30.48 1032 10 16 0.00 0.00
10:15 pm 22:15 Cloudy 24 -4.3 14 -9.9 65 65 WNW 5 7 30.48 1032 10 16 0.00 0.00
10:35 pm 22:35 Cloudy 24 -4.6 15 -9.7 68 68 NW 5 7 30.50 1033 10 16 0.00 0.00
10:55 pm 22:55 Cloudy 24 -4.6 14 -10.1 66 66 NW 7 11 30.50 1033 10 16 0.00 0.00
11:15 pm 23:15 Cloudy 23 -4.8 14 -10 67 67 NW 6 9 30.50 1033 10 16 0.00 0.00
11:35 pm 23:35 Cloudy 23 -4.9 14 -10 68 68 WNW 5 7 30.50 1033 10 16 0.00 0.00
11:55 pm 23:55 Cloudy 22 -5.3 14 -10 70 70 Calm 30.50 1033 10 16 0.00 0.00

Powered by AerisWeather